When you browse on this site, cookies collect data to enhance your experience and personalize the content and advertising you see.
Visit our Privacy Policy to learn more. By continuing to use the site, you agree to this use of cookies and data.
  • In Lithuania
  • List of Countries
  • For 7 days
  • Water Temperature
  • Weather Map
  • Weather Widgets
  • user-avatar
    Login

    Hourly Weather Browina

    Today, 21 August, Wednesday

    Time Temperature Precipitation Wind Pressure Humidity
    00:00 +19°C° 0 mm 3 mps 749 mmHg 60%
    01:00 +19°C° 0 mm 2 mps 749 mmHg 62%
    02:00 +18°C° 1.9 mm 3 mps 749 mmHg 72%
    03:00 +16°C° 1.9 mm 3 mps 749 mmHg 82%
    04:00 +14°C° 1.9 mm 4 mps 749 mmHg 93%
    05:00 +14°C° 1 mm 4 mps 749 mmHg 93%
    06:00 +14°C° 1 mm 4 mps 750 mmHg 93%
    07:00 +14°C° 1 mm 4 mps 750 mmHg 93%
    08:00 +14°C° 0.2 mm 4 mps 750 mmHg 92%
    09:00 +14°C° 0.2 mm 4 mps 751 mmHg 91%
    10:00 +14°C° 0.2 mm 3 mps 751 mmHg 91%
    11:00 +17°C° 0.1 mm 3 mps 751 mmHg 84%
    12:00 +18°C° 0.1 mm 3 mps 752 mmHg 77%
    13:00 +19°C° 0.1 mm 2 mps 752 mmHg 70%
    14:00 +19°C° 0.1 mm 2 mps 752 mmHg 69%
    15:00 +20°C° 0.1 mm 2 mps 752 mmHg 67%
    16:00 +20°C° 0.1 mm 2 mps 752 mmHg 66%
    17:00 +19°C° 0 mm 2 mps 752 mmHg 72%
    18:00 +18°C° 0 mm 1 mps 753 mmHg 77%
    19:00 +15°C° 0 mm 0 mps 753 mmHg 83%
    20:00 +14°C° 0 mm 0 mps 753 mmHg 85%
    21:00 +14°C° 0 mm 0 mps 753 mmHg 87%
    22:00 +13°C° 0 mm 0 mps 753 mmHg 89%
    23:00 +14°C° 0 mm 1 mps 754 mmHg 90%

    Tomorrow, 22 August, Thursday

    Time Temperature Precipitation Wind Pressure Humidity
    00:00 +14°C° 0 mm 1 mps 754 mmHg 91%
    01:00 +13°C° 0 mm 1 mps 754 mmHg 91%
    02:00 +13°C° 0 mm 1 mps 754 mmHg 91%
    03:00 +13°C° 0 mm 1 mps 754 mmHg 90%
    04:00 +13°C° 0 mm 1 mps 754 mmHg 90%
    05:00 +14°C° 0 mm 1 mps 754 mmHg 84%
    06:00 +15°C° 0 mm 1 mps 754 mmHg 79%
    07:00 +16°C° 0 mm 1 mps 755 mmHg 73%
    08:00 +19°C° 0 mm 1 mps 755 mmHg 67%
    09:00 +20°C° 0 mm 1 mps 755 mmHg 61%
    10:00 +22°C° 0 mm 1 mps 755 mmHg 55%
    11:00 +22°C° 0 mm 1 mps 755 mmHg 52%
    12:00 +23°C° 0 mm 1 mps 755 mmHg 50%
    13:00 +23°C° 0 mm 1 mps 755 mmHg 47%
    14:00 +23°C° 0 mm 1 mps 754 mmHg 47%
    15:00 +23°C° 0 mm 1 mps 754 mmHg 47%
    16:00 +23°C° 0 mm 1 mps 754 mmHg 47%
    17:00 +22°C° 0 mm 1 mps 754 mmHg 52%
    18:00 +20°C° 0 mm 1 mps 754 mmHg 58%
    19:00 +19°C° 0 mm 1 mps 754 mmHg 64%
    20:00 +18°C° 0 mm 1 mps 754 mmHg 67%
    21:00 +16°C° 0 mm 1 mps 754 mmHg 70%
    22:00 +15°C° 0 mm 1 mps 754 mmHg 73%
    23:00 +15°C° 0 mm 1 mps 754 mmHg 74%

    Day after tomorrow, 23 August, Friday

    Time Temperature Precipitation Wind Pressure Humidity
    00:00 +15°C° 0 mm 1 mps 754 mmHg 76%
    01:00 +14°C° 0 mm 1 mps 754 mmHg 77%
    02:00 +14°C° 0 mm 1 mps 754 mmHg 78%
    03:00 +14°C° 0 mm 1 mps 754 mmHg 79%
    04:00 +14°C° 0 mm 1 mps 754 mmHg 80%
    05:00 +15°C° 0 mm 1 mps 754 mmHg 76%
    06:00 +16°C° 0 mm 1 mps 754 mmHg 71%
    07:00 +19°C° 0 mm 1 mps 754 mmHg 67%
    08:00 +20°C° 0 mm 1 mps 755 mmHg 61%
    09:00 +21°C° 0 mm 2 mps 755 mmHg 55%
    10:00 +23°C° 0 mm 2 mps 755 mmHg 48%
    11:00 +24°C° 0 mm 2 mps 755 mmHg 46%
    12:00 +25°C° 0 mm 2 mps 754 mmHg 44%
    13:00 +25°C° 0 mm 2 mps 754 mmHg 41%
    14:00 +25°C° 0 mm 2 mps 754 mmHg 42%
    15:00 +25°C° 0 mm 2 mps 754 mmHg 43%
    16:00 +25°C° 0 mm 2 mps 753 mmHg 44%
    17:00 +23°C° 0 mm 2 mps 753 mmHg 51%
    18:00 +20°C° 0 mm 2 mps 753 mmHg 57%
    19:00 +18°C° 0 mm 2 mps 753 mmHg 64%
    20:00 +18°C° 0 mm 2 mps 753 mmHg 65%
    21:00 +17°C° 0 mm 2 mps 753 mmHg 67%
    22:00 +16°C° 0 mm 2 mps 753 mmHg 69%
    23:00 +16°C° 0 mm 2 mps 753 mmHg 70%

    24 August, Saturday

    Time Temperature Precipitation Wind Pressure Humidity
    00:00 +15°C° 0 mm 2 mps 753 mmHg 71%
    01:00 +15°C° 0 mm 2 mps 753 mmHg 72%
    02:00 +15°C° 0 mm 2 mps 753 mmHg 74%
    03:00 +14°C° 0 mm 2 mps 752 mmHg 76%
    04:00 +14°C° 0 mm 2 mps 752 mmHg 78%
    05:00 +15°C° 0 mm 2 mps 752 mmHg 75%
    06:00 +16°C° 0 mm 2 mps 752 mmHg 72%
    07:00 +18°C° 0 mm 2 mps 752 mmHg 70%
    08:00 +19°C° 0 mm 2 mps 752 mmHg 62%
    09:00 +21°C° 0 mm 2 mps 752 mmHg 55%
    10:00 +24°C° 0 mm 3 mps 752 mmHg 48%
    11:00 +25°C° 0 mm 3 mps 752 mmHg 46%
    12:00 +25°C° 0 mm 3 mps 752 mmHg 43%
    13:00 +26°C° 0 mm 3 mps 752 mmHg 41%
    14:00 +26°C° 0 mm 3 mps 751 mmHg 41%
    15:00 +26°C° 0 mm 2 mps 751 mmHg 42%
    16:00 +25°C° 0 mm 2 mps 751 mmHg 42%
    17:00 +24°C° 0 mm 2 mps 751 mmHg 48%
    18:00 +21°C° 0 mm 2 mps 750 mmHg 55%
    19:00 +19°C° 0 mm 2 mps 750 mmHg 61%
    20:00 +18°C° 0 mm 2 mps 750 mmHg 63%
    21:00 +17°C° 0 mm 2 mps 751 mmHg 65%
    22:00 +17°C° 0 mm 2 mps 751 mmHg 67%
    23:00 +16°C° 0 mm 2 mps 751 mmHg 69%

    25 August, Sunday

    Time Temperature Precipitation Wind Pressure Humidity
    00:00 +16°C° 0 mm 2 mps 751 mmHg 71%
    01:00 +15°C° 0 mm 2 mps 751 mmHg 72%
    02:00 +15°C° 0 mm 2 mps 751 mmHg 73%
    03:00 +15°C° 0 mm 2 mps 751 mmHg 74%
    04:00 +14°C° 0 mm 2 mps 750 mmHg 75%
    05:00 +15°C° 0 mm 2 mps 751 mmHg 73%
    06:00 +16°C° 0 mm 2 mps 751 mmHg 70%
    07:00 +18°C° 0 mm 3 mps 751 mmHg 68%
    08:00 +19°C° 0 mm 3 mps 751 mmHg 62%
    09:00 +21°C° 0 mm 4 mps 751 mmHg 55%
    10:00 +23°C° 0 mm 4 mps 751 mmHg 49%
    11:00 +25°C° 0 mm 4 mps 751 mmHg 48%
    12:00 +25°C° 0 mm 4 mps 751 mmHg 46%
    13:00 +26°C° 0 mm 4 mps 751 mmHg 45%
    14:00 +26°C° 0 mm 4 mps 750 mmHg 46%
    15:00 +26°C° 0 mm 4 mps 750 mmHg 47%
    16:00 +26°C° 0 mm 4 mps 750 mmHg 48%
    17:00 +24°C° 0 mm 3 mps 750 mmHg 55%
    18:00 +21°C° 0 mm 3 mps 750 mmHg 62%
    19:00 +19°C° 0 mm 3 mps 750 mmHg 69%
    20:00 +18°C° 0 mm 3 mps 750 mmHg 71%
    21:00 +17°C° 0 mm 3 mps 750 mmHg 73%
    22:00 +17°C° 0 mm 3 mps 750 mmHg 75%
    23:00 +16°C° 0 mm 3 mps 750 mmHg 76%

    26 August, Monday

    Time Temperature Precipitation Wind Pressure Humidity
    00:00 +16°C° 0 mm 3 mps 750 mmHg 77%
    01:00 +16°C° 0 mm 3 mps 750 mmHg 78%
    02:00 +16°C° 0 mm 3 mps 749 mmHg 79%
    03:00 +14°C° 0 mm 3 mps 749 mmHg 80%
    04:00 +14°C° 0 mm 3 mps 749 mmHg 82%
    05:00 +16°C° 0 mm 3 mps 749 mmHg 79%
    06:00 +17°C° 0 mm 4 mps 748 mmHg 76%
    07:00 +18°C° 0 mm 4 mps 748 mmHg 73%
    08:00 +19°C° 0 mm 4 mps 748 mmHg 70%
    09:00 +21°C° 0 mm 4 mps 748 mmHg 66%
    10:00 +23°C° 0 mm 4 mps 748 mmHg 63%
    11:00 +25°C° 0 mm 4 mps 748 mmHg 60%
    12:00 +26°C° 0 mm 4 mps 747 mmHg 58%
    13:00 +28°C° 0 mm 5 mps 747 mmHg 55%
    14:00 +28°C° 0 mm 4 mps 747 mmHg 55%
    15:00 +28°C° 0 mm 4 mps 746 mmHg 55%
    16:00 +28°C° 0 mm 4 mps 746 mmHg 56%
    17:00 +26°C° 0 mm 4 mps 745 mmHg 62%
    18:00 +24°C° 0 mm 3 mps 745 mmHg 69%
    19:00 +22°C° 0 mm 3 mps 745 mmHg 75%
    20:00 +21°C° 0 mm 3 mps 745 mmHg 76%
    21:00 +21°C° 0 mm 3 mps 745 mmHg 77%
    22:00 +21°C° 0 mm 4 mps 745 mmHg 78%
    23:00 +20°C° 0.4 mm 3 mps 744 mmHg 81%
    Show more